Hourly Data Report for September 19, 2018

ASHCROFT
BRITISH COLUMBIA
Current Station Operator: ECCC - MSC

50°42'30.005" N
121°16'53.001" W
327.00 m
1160515
71681
VAS

Download Data

Hourly Data (September 2018)
Hourly Data Report for September 19, 2018
TIME
LST
Temp Definition
°C
Dew Point Definition
°C
Rel Hum Definition
%
Precip. Amount Definition
mm

Wind Dir Definition
10's deg

Wind Spd Definition
km/h
Visibility Definition
km
Stn Press Definition
kPa
Hmdx Definition


Wind Chill Definition


Weather Definition


00:00 8.8 3.2 68 0.0 13 3   98.04     LegendNANA
01:00 8.2 3.3 71 0.0 15 2   98.07     LegendNANA
02:00 7.3 3.6 77 0.0 17 2   98.08     LegendNANA
03:00 6.5 3.2 79 0.0 12 1   98.08     LegendNANA
04:00 5.9 3.0 82 0.0 16 3   98.10     LegendNANA
05:00 5.6 3.0 83 0.0 13 2   98.11     LegendNANA
06:00 5.2 2.9 85 0.0   0   98.13     LegendNANA
07:00 5.7 3.5 86 0.0   0   98.16     LegendNANA
08:00 7.2 3.7 78 0.0   0   98.14     LegendNANA
09:00 9.3 3.7 68 0.0 27 1   98.10     LegendNANA
10:00 11.1 4.0 61 0.0 28 2   98.03     LegendNANA
11:00 13.2 4.1 54 0.0 33 4   97.91     LegendNANA
12:00 15.0 4.6 50 0.0 4 2   97.78     LegendNANA
13:00 15.9 3.5 44 0.0 31 3   97.68     LegendNANA
14:00 18.2 3.6 38 0.0 30 4   97.57     LegendNANA
15:00 18.9 3.3 36 0.0 27 2   97.47     LegendNANA
16:00 18.1 4.1 39 0.0 22 6   97.43     LegendNANA
17:00 17.6 4.4 42 0.0 20 3   97.39     LegendNANA
18:00 17.0 5.8 48 0.0 19 4   97.42     LegendNANA
19:00 14.7 8.1 64 0.0 7 1   97.45     LegendNANA
20:00 15.0 8.2 64 0.0   0   97.50     LegendNANA
21:00 13.9 6.8 62 0.0 18 4   97.54     LegendNANA
22:00 13.2 6.9 66 0.0 9 3   97.58     LegendNANA
23:00 14.5 6.1 57 0.0 4 8   97.65     LegendNANA

Notes on Data Quality.

Legend

  • E = Estimated
  • M = Missing
  • NA = Not Available*
  • [empty] = Indicates an unobserved value
Date modified: